Regional Weather Roundup
Issued by NWS

Home | Current Version | Previous Version | Graphics & Text | Print | Product List | Glossary On
Versions: 1 2 3 4 5 6 7 8 9 10 11 12 13 14 15 16 17 18 19 20 21 22 23 24 25 26 27 28 29 30 31 32 33 34 35 36 37 38 39 40 41 42 43 44 45 46 47 48 49 50
000
ASUS45 KTFX 010519
RWRMT
MONTANA HOURLY WEATHER ROUNDUP
NATIONAL WEATHER SERVICE GREAT FALLS MT
1119 PM MDT TUE MAR 31 2015

NOTE: "FAIR" INDICATES FEW OR NO CLOUDS BELOW 12000 FEET WITH NO
SIGNIFICANT WEATHER AND/OR OBSTRUCTIONS TO VISIBILITY.

* THESE STATIONS ARE NOT UNDER NWS QUALITY CONTROL. THEY DO NOT
   REPORT WEATHER SUCH AS PRECIPITATION OR FOG.

MTZ001>007-043-010600-
WEST OF THE DIVIDE
CITY           SKY/WX    TMP DP  RH WIND       PRES   REMARKS
KALISPELL      MOCLDY    41  27  58 SW9       29.83S
MISSOULA       MOCLDY    34  28  79 W5        29.94S WCI  29
BUTTE          CLOUDY    36  21  54 NW15      29.86R WCI  27
MULLAN PASS    MOCLDY    27  21  78 W8        29.86S WCI  19
* ESSEX        N/A       34  32  92 N/A        N/A
* EUREKA APT   CLOUDY    39  30  70 SE6       29.84R WCI  35
* HAMILTON APT CLOUDY    37  27  67 S9        29.94F WCI  30
* LIBBY APT    MOCLDY    43  28  56 CALM      29.86R
* LINCOLN      N/A       36  28  73 SW6G19     N/A   WCI  31
* LOOKOUT PASS N/A       34  23  64 S3G9       N/A
* POLSON       N/A       37  26  64 S2G8       N/A
* RONAN APT    MOCLDY    41  27  58 N/A        N/A
* SEELEY LAKE  N/A       31  26  82 N/A        N/A
* THOMP F APT  MOCLDY    45  22  40 NW6G25     N/A
$$

MTZ008-052>055-010600-
SOUTHWEST MONTANA
CITY           SKY/WX    TMP DP  RH WIND       PRES   REMARKS
BOZEMAN        LGT RAIN  43  34  71 W5        29.83R
DILLON         CLOUDY    43  27  53 NW13G20   29.82R
* W YELLOWSTON CLOUDY    45  21  38 SW4G12     N/A
* THREE FORKS  CLOUDY    46  30  54 NW18G25    N/A
* TWIN BRIDGES CLOUDY    45  27  49 N20G25     N/A
* BOULDER HILL N/A       35  19  52 N8G20      N/A   WCI  28
* HOMESTAKE PS N/A       31  22  69 W12G22     N/A   WCI  22
* MONIDA PASS  N/A       36  27  70 W12        N/A   WCI  28
* RAYNOLDS PAS N/A       46  -2  13 VRB6G11    N/A
* WHITEHALL    N/A       45  29  54 NW10G24    N/A
* WISE RIVER   N/A       36  25  64 W12G20     N/A   WCI  28
$$

MTZ009>010-012-014-046-048-049-054-010600-
EAST SLOPES AND CENTRAL MONTANA
CITY           SKY/WX    TMP DP  RH WIND       PRES   REMARKS
CUT BANK       PTCLDY    37  25  62 W20G26    29.70S WCI  27
GREAT FALLS    CLOUDY    46  21  37 W20       29.74R
HELENA         CLOUDY    43  27  53 W9        29.84R
MALMSTROM AFB  CLOUDY    48  25  41 SW20G25   29.76R
* CONRAD       PTCLDY    45  27  49 W16G24     N/A
* DEARBORN     N/A       47  23  39 SE16G27    N/A
* EAST GLACIER N/A       35  23  62 W22G38     N/A   WCI  23
* MONARCH      N/A       42  26  53 W20G25     N/A
* PENDROY      N/A       40  18  41 W30G40     N/A   WCI  28
* ROGERS PASS  N/A       32  22  67 SE12G28    N/A   WCI  23
* SAINT MARY   N/A       38  23  55 SW10G22    N/A   WCI  31
* SWEET GRASS  N/A       41  26  55 W22G31     N/A
* WHITE SULPH  N/A       41  28  60 NW12G26    N/A
$$

MTZ011-013-016-021-035-040-045-047-050-051-010600-
NORTH CENTRAL MONTANA
CITY           SKY/WX    TMP DP  RH WIND       PRES   REMARKS
HAVRE          CLOUDY    54  34  47 W15       29.63R
LEWISTOWN      RAIN      48  43  83 W10       29.73R
* N BAR RANCH  MOCLDY    48  37  66 NW30G44   29.64R
* CHINOOK      CLOUDY    54  36  51 W13       29.61R
* FORT BENTON  MOCLDY    46  34  63 W8        29.72R
* MALTA APT    CLOUDY    61  39  44 W14G23     N/A
* CHESTER      N/A       45  27  49 W22G33     N/A
* DENTON       N/A       50  40  69 W16        N/A
* GEYSER       N/A       42  34  73 W16G22     N/A
* JUDITH GAP   N/A       46  40  80 NW21G34    N/A
* LOMA         N/A       51  31  46 SW12       N/A
$$

MTZ017>020-022>027-061-062-010600-
NORTHEAST MONTANA
CITY           SKY/WX    TMP DP  RH WIND       PRES   REMARKS
GLASGOW        PTCLDY    59  36  42 NW18      29.44R
GLENDIVE       CLOUDY    61  30  31 S8        29.47F
JORDAN         PTCLDY    61  36  39 NW23G33   29.49R
SIDNEY         CLOUDY    54  36  51 CALM      29.44F
WOLF POINT     MOCLDY    54  36  51 E5        29.41F
* BEAVER HILL  N/A       62  27  26 SE11       N/A
* CIRCLE       N/A       60  33  36 W3         N/A
* LINDSAY DVD  N/A       62  27  26 S8         N/A
* NAVAJO       N/A       57  31  37 SE6        N/A
* PLENTYWOOD A MOCLDY    57  36  46 E9        29.42F
* POPLAR APT   CLOUDY    57  36  46 N7        29.41F
* SACO         N/A       61  37  41 NW26G35    N/A
$$

MTZ028>042-056>058-010600-
SOUTHCENTRAL AND SOUTHEAST MONTANA
CITY           SKY/WX    TMP DP  RH WIND       PRES   REMARKS
BAKER          CLOUDY    59  28  31 S16       29.50F
BILLINGS       FAIR      61  23  23 NW17      29.58R
LIVINGSTON     CLOUDY    45  34  65 NW22G28   29.75R
MILES CITY     CLOUDY    63  27  26 S9        29.47S
* BIG TIMBER A MOCLDY    46  34  63 SW17G26   29.70R
* FORSYTH APT  CLOUDY    73  21  14 W17G26    29.49S
* LAUREL APT   PTCLDY    57  23  27 N/A        N/A
* ROUNDUP APT  PTCLDY    59  30  33 NW14G20    N/A
* ALZADA       N/A       53  30  41 SE6        N/A
* HYSHAM       N/A       64  20  18 NW7G13     N/A
* LAME DEER    N/A       67  22  18 S13G23     N/A
* REED POINT   N/A       58  26  29 SW3        N/A
* ROSCOE HILL  N/A       56   9  15 W15G39     N/A
$$

REGIONAL REPORTS...DAKOTAS
CITY           SKY/WX    TMP DP  RH WIND       PRES   REMARKS
WILLISTON      CLOUDY    52  37  57 CALM      29.45F
DICKINSON      CLOUDY    55  30  39 S10       29.50F
BEACH          CLEAR     52  32  47 SE9       29.49F
CROSBY         CLEAR     50  37  61 SE7       29.47F
TIOGA          CLEAR     46  37  71 E5        29.51F
WATFORD CITY   CLEAR     55  34  45 SE7       29.46F
BISMARCK       MOCLDY    54  36  51 NE6       29.56F
GRAND FORKS    PTCLDY    45  30  56 E9        29.72F
FARGO          PTCLDY    52  28  40 SE13      29.72F
BUFFALO SD     CLOUDY    57  25  29 SE7       29.49F
RAPID CITY     CLOUDY    57  25  29 S5        29.60F
$$

REGIONAL REPORTS...WYOMING/IDAHO/WASHINGTON
CITY           SKY/WX    TMP DP  RH WIND       PRES   REMARKS
GILLETTE       CLOUDY    59  21  23 S12       29.60F
SHERIDAN       CLOUDY    54  27  35 E6        29.58S
CODY           PTCLDY    54  27  35 SW7       29.66S
YELLOWSTONE LA MOCLDY    39  19  45 VRB5      29.82F WCI  35
SALMON         CLOUDY    39  30  70 SW3       29.94R
MULLAN PASS    MOCLDY    27  21  78 W8        29.86S WCI  19
SAND POINT     CLOUDY    41  28  60 W5        29.87R
SPOKANE        PTCLDY    39  25  57 W17       29.93R WCI  30
$$

REGIONAL REPORTS...ALBERTA
CITY           SKY/WX    TMP DP  RH WIND       PRES   REMARKS
CALGARY        MOCLDY    39  27  62 N15G22    29.62R WCI  31
LETHBRIDGE     CLEAR     41  30  65 SW25G37   29.65S
MEDICINE HAT   CLOUDY    48  30  50 SW13G21   29.60R
EDMONTON       MOCLDY    37  30  76 NW20G26   29.58R WCI  27
WATERTON GATE  N/A       34  30  85 W20G26     N/A   WCI  23
CARDSTON       N/A       37  28  70 W15G25     N/A   WCI  28
MILK RIVER     N/A       41  27  58 W18G25     N/A
$$

REGIONAL REPORTS...SASKATCHEWAN
CITY           SKY/WX    TMP DP  RH WIND       PRES   REMARKS
SWIFT CURRENT  CLOUDY    54  28  37 W18G31    29.51F
REGINA         CLOUDY    46  41  83 SE14      29.48S
VAL MARIE      N/A       52  43  72 NW13G18    N/A
ASSINIBOIA     N/A       59  37  44 S15G21     N/A
CORONACH       N/A       57  34  42 NW5        N/A

$$




USA.gov is the U.S. government's official web portal to all federal, state and local government web resources and services.